TimeCST,TemperatureF,Dew PointF,Humidity,Sea Level PressureIn,VisibilityMPH,Wind Direction,Wind SpeedMPH,Gust SpeedMPH,PrecipitationIn,Events,Conditions,WindDirDegrees,DateUTC
12:53 AM,28.9,26.1,89,30.33,10.0,Calm,Calm,-,N/A,,Clear,0,2012-12-13 06:53:00
1:53 AM,28.0,25.0,88,30.33,10.0,Calm,Calm,-,N/A,,Clear,0,2012-12-13 07:53:00
2:53 AM,28.0,25.0,88,30.32,10.0,Calm,Calm,-,N/A,,Clear,0,2012-12-13 08:53:00
3:53 AM,28.0,25.0,88,30.32,10.0,Calm,Calm,-,N/A,,Clear,0,2012-12-13 09:53:00
4:53 AM,27.0,24.1,89,30.32,10.0,Calm,Calm,-,N/A,,Clear,0,2012-12-13 10:53:00
5:53 AM,26.1,24.1,92,30.35,10.0,Calm,Calm,-,N/A,,Clear,0,2012-12-13 11:53:00
6:53 AM,27.0,23.0,85,30.37,10.0,Calm,Calm,-,N/A,,Clear,0,2012-12-13 12:53:00
7:53 AM,28.9,27.0,92,30.37,10.0,Calm,Calm,-,N/A,,Clear,0,2012-12-13 13:53:00
8:53 AM,41.0,32.0,70,30.37,10.0,NE,6.9,-,N/A,,Clear,50,2012-12-13 14:53:00
9:53 AM,48.9,30.9,50,30.38,10.0,Calm,Calm,-,N/A,,Clear,0,2012-12-13 15:53:00
10:53 AM,54.0,26.1,34,30.38,10.0,SE,5.8,-,N/A,,Clear,140,2012-12-13 16:53:00
11:53 AM,57.0,24.1,28,30.35,10.0,SSE,4.6,-,N/A,,Clear,160,2012-12-13 17:53:00
12:53 PM,60.1,23.0,24,30.32,10.0,Variable,4.6,-,N/A,,Clear,0,2012-12-13 18:53:00
1:53 PM,62.1,21.0,21,30.30,10.0,West,5.8,-,N/A,,Clear,260,2012-12-13 19:53:00
2:53 PM,62.1,21.0,21,30.28,10.0,Calm,Calm,-,N/A,,Clear,0,2012-12-13 20:53:00
3:53 PM,63.0,19.0,18,30.26,10.0,NNE,3.5,-,N/A,,Clear,30,2012-12-13 21:53:00
4:53 PM,57.2,21.2,25,30.26,10.0,Calm,Calm,-,N/A,,Clear,0,2012-12-13 22:53:00
6:53 PM,39.2,32.0,75,30.28,10.0,Calm,Calm,-,N/A,,Clear,0,2012-12-14 00:53:00
7:53 PM,36.0,28.9,76,30.28,10.0,Calm,Calm,-,N/A,,Clear,0,2012-12-14 01:53:00
8:53 PM,35.1,28.9,78,30.29,10.0,Calm,Calm,-,N/A,,Clear,0,2012-12-14 02:53:00
9:53 PM,33.1,28.0,82,30.29,10.0,Calm,Calm,-,N/A,,Clear,0,2012-12-14 03:53:00
10:53 PM,30.9,28.0,89,30.29,10.0,Calm,Calm,-,N/A,,Clear,0,2012-12-14 04:53:00
11:53 PM,30.2,26.6,86,30.29,10.0,Calm,Calm,-,N/A,,Clear,0,2012-12-14 05:53:00